Regional Weather Roundup
Issued by NWS Charleston, SC

Current Version | Previous Version | Text Only | Print | Product List | Glossary Off
Versions: 1 2 3 4 5 6 7 8 9 10 11 12 13 14 15 16 17 18 19 20 21 22 23 24 25 26 27 28 29 30 31 32 33 34 35 36 37 38 39 40 41 42 43 44 45 46 47 48 49 50

000
ASUS42 KCHS 070827
RWRCHS

REGIONAL WEATHER ROUNDUP
NATIONAL WEATHER SERVICE CHARLESTON SC
300 AM EST WED DEC 07 2016

NOTE: "FAIR" INDICATES FEW OR NO CLOUDS BELOW 12,000 FEET WITH NO
SIGNIFICANT WEATHER AND/OR OBSTRUCTIONS TO VISIBILITY.

NOT ALL STATIONS ARE QUALITY CONTROLLED. USE DATA WITH CAUTION...
ESPECIALLY DEWPOINT OBSERVATIONS.

SCZ027-030-031-034>040-042>050-070900-
...SOUTHEAST SOUTH CAROLINA...

CITY           SKY/WX    TMP DP  RH WIND       PRES   REMARKS
N CHARLESTON   CLOUDY    54  51  90 NW12      29.93S
WATERFRONT PRK   N/A     54  53  97 NW8       29.92R
MOUNT PLEASANT CLOUDY    54  52  94 NW7       29.94R
JOHNS ISLAND   CLOUDY    55  54  94 NW6       29.95R
PINOPOLIS        N/A     54  52  94 NW9       29.86R
MONCKS CORNER  CLOUDY    52  50  93 CALM      29.95R
SUMMERVILLE    CLOUDY    54  54 100 N6        29.96R
BEAUFORT MCAS  CLEAR     53  51  93 N3        29.95R
BEAUFORT ARPT  FAIR      52  52 100 CALM      29.95R
HILTON HEAD IS CLEAR     52  52 100 CALM      29.96R FOG
WALTERBORO     CLOUDY    54 N/A N/A NW6       29.97R HAZE
ALLENDALE      CLOUDY    54  52  94 CALM      29.96R FOG

...SOUTHERN MIDLANDS AND PEE DEE...

CITY           SKY/WX    TMP DP  RH WIND       PRES   REMARKS
GEORGETOWN     CLOUDY    50  48  93 NW6       29.94R
KINGSTREE      CLOUDY    48  45  87 NW6       29.96R
ORANGEBURG     CLOUDY    51  50  96 N5        29.96R
BARNWELL       NOT AVBL
AIKEN          CLOUDY    48  46  93 CALM      29.98R FOG
MANNING        CLOUDY    48  46  93 N6        29.96R
COLUMBIA       CLOUDY    50  47  89 CALM      29.94R
SUMTER         CLOUDY    48  46  90 NW5       29.94R
FLORENCE       CLOUDY    48  46  93 N6        29.95R
MYRTLE BEACH   CLOUDY    52  45  76 NW9       29.95R
N MYRTLE BEACH CLOUDY    49  47  93 NW8       29.92R

$$

GAZ063-065-086>088-099>101-113>116-118-119-134>141-150-070900-
...SOUTHEAST GEORGIA...

CITY           SKY/WX    TMP DP  RH WIND       PRES   REMARKS
SAVANNAH ARPT  CLEAR     53  51  93 CALM      29.96R
HUNTER AAF     CLEAR     54  54 100 CALM      29.93S FOG
FORT STEWART   PTCLDY    52  50  93 CALM      29.94R
STATESBORO     NOT AVBL
SYLVANIA       MOSUNNY  N/A N/A N/A CALM      29.97R
CLAXTON        FAIR     N/A N/A N/A CALM      29.97R FOG

...CSRA...CENTRAL AND FAR SOUTHEAST GEORGIA...

CITY           SKY/WX    TMP DP  RH WIND       PRES   REMARKS
THOMSON          N/A     51  51 100 CALM      29.99R VSB 3/4
AUGUSTA-BUSH   FOG       50  48  93 CALM      29.95R VSB 1/4
AUGUSTA-DANIEL FOG       51  48  89 CALM      29.95R VSB 1/4
SWAINSBORO     PTSUNNY   54  52  94 NW3       29.97R
VIDALIA        CLOUDY    59  59 100 CALM      29.97R
EASTMAN        FAIR      53  52  99 CALM      30.00R FOG
HAZLEHURST     CLOUDY    58  58 100 CALM      29.97S
ALMA           CLEAR     51  51 100 CALM      29.97R
WAYCROSS       PTCLDY    57  57 100 CALM      29.97S
JESUP          FAIR      54  54 100 CALM      29.97R
BAXLEY         CLOUDY    59  59 100 NW3       29.97R
BRUNSWICK      PTCLDY    54  54 100 CALM      29.97R FOG
SAINT SIMONS   PTCLDY    59  54  83 CALM      29.95R

$$

SCZ027-028-034-036>038-045-046-048>050-GAZ119-141-070900-
...LAKE AND SUPPLEMENTAL COASTAL OBSERVATIONS...

STATION/POSITION TIME  TEMP    WIND        PRES    WAVE   SWELL
                       AIR SEA DIR/SP/G            HT/PER HT/PER/DIR
                 (UTC) (F)     (DEG/KT/KT) (MB)    (FT/S) (FT/S/D)
WINYAH BAY       0745   51     320/  5     1013.0R
LAKE MURRAY      0750   49     300/  4/  6 1013.9R
ACE BASIN NERRS  0745   53     330/  2     1014.0R
FORT PULASKI     0800   57 62  330/  4/  4 1014.5
SAPELO ISLAND    0800   57      30/  3     1014.0

$$

ANZ835-935-AMZ111-154-330-350-352-354-370-450-454-472-070900-
...C-MAN AND BUOY OBSERVATIONS...

STATION/POSITION TIME  TEMP    WIND        PRES    WAVE   SWELL
                       AIR SEA DIR/SP/G            HT/PER HT/PER/DIR
                 (UTC) (F)     (DEG/KT/KT) (MB)    (FT/S) (FT/S/D)
BUOY 41004       0750   59 74  320/ 14/ 17 1012.9R   4/ 8   2/150/ 8
BUOY 41008       0750   64 65   10/  4/  6 1013.7R   2/ 6   2/170/ 6
FOLLY BEACH CMAN 0800   54     320/  4/  5 1014.3R
CAPERS NEARSHORE 0708   54 60  320/ 14/ 17 1012.9R
FRIPP NEARSHORE  0708   57 62  340/  8/ 10 1013.5R


STATION/POSITION TIME  TEMP    WIND        PRES    WAVE   SWELL
                       AIR SEA DIR/SP/G            HT/PER HT/PER/DIR
                 (UTC) (F)     (DEG/KT/KT) (MB)    (FT/S) (FT/S/D)
5E ST. MARYS GA  0800      66                N/A     2/ 6
FRYING PAN BUOY  0810   57 74  320/ 16/ 21 1012.6
BUOY 41025       0750   57 74  300/ 25/ 31 1008.8R   7/ 9   3/140/ 9
CAPE LOOKOUT NC  0800   48     320/ 16/ 17 1010.8R
BUOY 41002       0750   73 74  320/ 19/ 23 1010.0R  11/ 9   8/270/ 9
BUOY 41010       NOT AVBL
ST AUGUSTINE FL  0800   60 67  270/  7/  9 1015.7R


$$



USA.gov is the U.S. government's official web portal to all federal, state and local government web resources and services.